Terug naar catalogus

STARLINK-3225

ActiefCommunicatieVLEO
NORAD 49737·PAYLOAD·🇺🇸 United States

Gelanceerd Dec 2, 2021 vanaf Cape Canaveral Space Force Station

Loading…

Volgende Passages (komende 24 uur)

TLE

VersSource: CelesTrak SupGP

Epoch: Sep 14, 2026, 21:51 UTC

1 49737C 21115P   26257.91090278  .00002395  00000+0  82689-4 0  2570
2 49737  53.1599  15.2712 0001243  79.7314  22.8820 15.29411055    19

Volg STARLINK-3225 in realtime met AllMySat

Download on the App Store